| time (UTC) | temp C | wind direction | speed KPH | gust KPH | rain 1hr cm | rain 24hr cm | rain mn cm | humidity % | barometer mb |
| 20260902185014 | 26 | 195 | 25.7 | 43.5 | 0.00 | 0.00 | 0.00 | 28 | 1002.8 |
| 20260902184513 | 26 | 185 | 27.4 | 38.6 | 0.00 | 0.00 | 0.00 | 29 | 1002.8 |
| 20260902184013 | 26 | 160 | 19.3 | 41.8 | 0.00 | 0.00 | 0.00 | 27 | 1002.8 |
| 20260902183511 | 26 | 182 | 29.0 | 41.8 | 0.00 | 0.00 | 0.00 | 29 | 1002.9 |
| 20260902183010 | 25 | 168 | 17.7 | 38.6 | 0.00 | 0.00 | 0.00 | 29 | 1003.0 |
| 20260902182509 | 25 | 207 | 24.1 | 35.4 | 0.00 | 0.00 | 0.00 | 30 | 1003.2 |
| 20260902182009 | 25 | 190 | 20.9 | 37.0 | 0.00 | 0.00 | 0.00 | 30 | 1003.2 |
| 20260902181509 | 25 | 182 | 19.3 | 40.2 | 0.00 | 0.00 | 0.00 | 31 | 1003.2 |
| 20260902181008 | 25 | 189 | 22.5 | 41.8 | 0.00 | 0.00 | 0.00 | 31 | 1003.3 |
| 20260902180506 | 25 | 208 | 25.7 | 48.3 | 0.00 | 0.00 | 0.00 | 31 | 1003.4 |
| 20260902180007 | 25 | 190 | 32.2 | 48.3 | 0.00 | 0.00 | 0.00 | 34 | 1003.4 |
| 20260902175506 | 25 | 159 | 25.7 | 37.0 | 0.00 | 0.00 | 0.00 | 34 | 1003.3 |
| 20260902175010 | 25 | 161 | 29.0 | 46.7 | 0.00 | 0.00 | 0.00 | 33 | 1003.4 |
| 20260902174505 | 25 | 184 | 32.2 | 46.7 | 0.00 | 0.00 | 0.00 | 32 | 1003.5 |
| 20260902174008 | 25 | 151 | 30.6 | 53.1 | 0.00 | 0.00 | 0.00 | 34 | 1003.4 |
| 20260902173504 | 24 | 159 | 24.1 | 53.1 | 0.00 | 0.00 | 0.00 | 34 | 1003.4 |
| 20260902173005 | 25 | 192 | 20.9 | 46.7 | 0.00 | 0.00 | 0.00 | 35 | 1003.4 |
| 20260902172504 | 24 | 195 | 32.2 | 48.3 | 0.00 | 0.00 | 0.00 | 33 | 1003.5 |
| 20260902172004 | 24 | 198 | 30.6 | 48.3 | 0.00 | 0.00 | 0.00 | 33 | 1003.4 |
| 20260902171502 | 24 | 181 | 25.7 | 49.9 | 0.00 | 0.00 | 0.00 | 35 | 1003.4 |
| 20260902171004 | 24 | 192 | 30.6 | 43.5 | 0.00 | 0.00 | 0.00 | 34 | 1003.4 |
| 20260902170504 | 24 | 174 | 30.6 | 43.5 | 0.00 | 0.00 | 0.00 | 35 | 1003.4 |
| 20260902170002 | 25 | 159 | 29.0 | 46.7 | 0.00 | 0.00 | 0.00 | 35 | 1003.4 |
| 20260902165501 | 24 | 166 | 27.4 | 51.5 | 0.00 | 0.00 | 0.00 | 36 | 1003.3 |
| 20260902165003 | 24 | 201 | 33.8 | 51.5 | 0.00 | 0.00 | 0.00 | 35 | 1003.4 |
| 20260902164607 | 24 | 187 | 35.4 | 53.1 | 0.00 | 0.00 | 0.00 | 35 | 1003.3 |
| 20260902164100 | 23 | 178 | 35.4 | 53.1 | 0.00 | 0.00 | 0.00 | 36 | 1003.1 |
| 20260902163559 | 23 | 184 | 40.2 | 53.1 | 0.00 | 0.00 | 0.00 | 35 | 1003.1 |
| 20260902163059 | 23 | 136 | 30.6 | 53.1 | 0.00 | 0.00 | 0.00 | 37 | 1003.2 |
| 20260902162557 | 23 | 170 | 32.2 | 49.9 | 0.00 | 0.00 | 0.00 | 39 | 1003.1 |
| 20260902162059 | 23 | 179 | 37.0 | 49.9 | 0.00 | 0.00 | 0.00 | 39 | 1003.2 |
| 20260902161602 | 23 | 191 | 30.6 | 48.3 | 0.00 | 0.00 | 0.00 | 39 | 1003.2 |
| 20260902161057 | 23 | 159 | 35.4 | 51.5 | 0.00 | 0.00 | 0.00 | 38 | 1003.1 |
| 20260902160559 | 23 | 172 | 37.0 | 46.7 | 0.00 | 0.00 | 0.00 | 39 | 1003.3 |
| 20260902160054 | 23 | 172 | 35.4 | 54.7 | 0.00 | 0.00 | 0.00 | 40 | 1003.2 |
| 20260902155554 | 23 | 152 | 37.0 | 56.3 | 0.00 | 0.00 | 0.00 | 40 | 1003.3 |
| 20260902155053 | 23 | 144 | 35.4 | 49.9 | 0.00 | 0.00 | 0.00 | 41 | 1003.3 |
| 20260902154609 | 22 | 141 | 35.4 | 49.9 | 0.00 | 0.00 | 0.00 | 41 | 1003.3 |
| 20260902154052 | 22 | 145 | 37.0 | 48.3 | 0.00 | 0.00 | 0.00 | 41 | 1003.4 |
| 20260902153551 | 23 | 157 | 30.6 | 48.3 | 0.00 | 0.00 | 0.00 | 41 | 1003.5 |
| 20260902153051 | 23 | 165 | 33.8 | 43.5 | 0.00 | 0.00 | 0.00 | 41 | 1003.4 |
| 20260902152553 | 22 | 166 | 32.2 | 48.3 | 0.00 | 0.00 | 0.00 | 41 | 1003.5 |
| 20260902152049 | 22 | 152 | 32.2 | 48.3 | 0.00 | 0.00 | 0.00 | 42 | 1003.6 |
| 20260902151552 | 22 | 149 | 35.4 | 48.3 | 0.00 | 0.00 | 0.00 | 42 | 1003.7 |
| 20260902151046 | 22 | 161 | 33.8 | 45.1 | 0.00 | 0.00 | 0.00 | 44 | 1003.7 |
| 20260902150546 | 22 | 138 | 22.5 | 37.0 | 0.00 | 0.00 | 0.00 | 45 | 1003.6 |
| 20260902150046 | 22 | 181 | 25.7 | 38.6 | 0.00 | 0.00 | 0.00 | 44 | 1003.7 |
| 20260902145546 | 22 | 138 | 22.5 | 41.8 | 0.00 | 0.00 | 0.00 | 44 | 1003.7 |
| 20260902145045 | 21 | 145 | 24.1 | 40.2 | 0.00 | 0.00 | 0.00 | 45 | 1003.6 |
| 20260902144549 | 21 | 129 | 27.4 | 45.1 | 0.00 | 0.00 | 0.00 | 44 | 1003.4 |
| 20260902144044 | 21 | 150 | 27.4 | 45.1 | 0.00 | 0.00 | 0.00 | 44 | 1003.3 |
| 20260902143545 | 21 | 164 | 29.0 | 45.1 | 0.00 | 0.00 | 0.00 | 45 | 1003.3 |
| 20260902143043 | 21 | 139 | 20.9 | 51.5 | 0.00 | 0.00 | 0.00 | 43 | 1003.2 |
| 20260902142543 | 21 | 161 | 29.0 | 54.7 | 0.00 | 0.00 | 0.00 | 43 | 1003.2 |
| 20260902142043 | 21 | 151 | 24.1 | 43.5 | 0.00 | 0.00 | 0.00 | 44 | 1003.2 |
| 20260902141540 | 21 | 130 | 25.7 | 41.8 | 0.00 | 0.00 | 0.00 | 44 | 1003.3 |
| 20260902141039 | 20 | 155 | 29.0 | 41.8 | 0.00 | 0.00 | 0.00 | 45 | 1003.4 |
| 20260902140540 | 20 | 127 | 22.5 | 46.7 | 0.00 | 0.00 | 0.00 | 48 | 1003.4 |
| 20260902140041 | 20 | 157 | 25.7 | 38.6 | 0.00 | 0.00 | 0.00 | 49 | 1003.5 |
| 20260902135538 | 20 | 140 | 20.9 | 33.8 | 0.00 | 0.00 | 0.00 | 48 | 1003.4 |
| 20260902135038 | 20 | 142 | 24.1 | 38.6 | 0.00 | 0.00 | 0.00 | 49 | 1003.4 |
| 20260902134538 | 19 | 145 | 27.4 | 38.6 | 0.00 | 0.00 | 0.00 | 49 | 1003.5 |
| 20260902134038 | 18 | 141 | 17.7 | 30.6 | 0.00 | 0.00 | 0.00 | 52 | 1003.4 |
| 20260902133537 | 18 | 126 | 22.5 | 30.6 | 0.00 | 0.00 | 0.00 | 52 | 1003.4 |
| 20260902133040 | 17 | 153 | 20.9 | 27.4 | 0.00 | 0.00 | 0.00 | 53 | 1003.6 |
| 20260902132537 | 17 | 151 | 19.3 | 30.6 | 0.00 | 0.00 | 0.00 | 52 | 1003.5 |
| 20260902132036 | 18 | 174 | 22.5 | 30.6 | 0.00 | 0.00 | 0.00 | 52 | 1003.5 |
| 20260902131541 | 17 | 145 | 20.9 | 29.0 | 0.00 | 0.00 | 0.00 | 53 | 1003.6 |
| 20260902131042 | 18 | 161 | 19.3 | 29.0 | 0.00 | 0.00 | 0.00 | 52 | 1003.5 |
| 20260902130539 | 18 | 167 | 19.3 | 32.2 | 0.00 | 0.00 | 0.00 | 52 | 1003.5 |
| 20260902130136 | 18 | 132 | 17.7 | 32.2 | 0.00 | 0.00 | 0.00 | 52 | 1003.5 |
| 20260902125536 | 18 | 163 | 20.9 | 32.2 | 0.00 | 0.00 | 0.00 | 52 | 1003.3 |
| 20260902125036 | 18 | 133 | 20.9 | 35.4 | 0.00 | 0.00 | 0.00 | 53 | 1003.4 |
| 20260902124536 | 18 | 153 | 19.3 | 35.4 | 0.00 | 0.00 | 0.00 | 52 | 1003.4 |
| 20260902124035 | 18 | 161 | 19.3 | 29.0 | 0.00 | 0.00 | 0.00 | 53 | 1003.4 |
| 20260902123534 | 18 | 183 | 20.9 | 29.0 | 0.00 | 0.00 | 0.00 | 52 | 1003.5 |
| 20260902123035 | 18 | 140 | 20.9 | 27.4 | 0.00 | 0.00 | 0.00 | 53 | 1003.4 |
| 20260902122538 | 18 | 148 | 19.3 | 30.6 | 0.00 | 0.00 | 0.00 | 52 | 1003.4 |
| 20260902122034 | 19 | 157 | 19.3 | 30.6 | 0.00 | 0.00 | 0.00 | 51 | 1003.4 |
| 20260902121533 | 20 | 134 | 22.5 | 35.4 | 0.00 | 0.00 | 0.00 | 51 | 1003.2 |
| 20260902121033 | 20 | 134 | 20.9 | 35.4 | 0.00 | 0.00 | 0.00 | 50 | 1003.3 |
| 20260902120533 | 20 | 126 | 24.1 | 41.8 | 0.00 | 0.00 | 0.00 | 51 | 1003.3 |
| 20260902120134 | 20 | 127 | 29.0 | 41.8 | 0.00 | 0.00 | 0.00 | 50 | 1003.1 |
| 20260902115532 | 19 | 155 | 20.9 | 29.0 | 0.00 | 0.00 | 0.00 | 51 | 1003.2 |
| 20260902115032 | 20 | 149 | 17.7 | 27.4 | 0.00 | 0.00 | 0.00 | 49 | 1003.3 |
| 20260902114532 | 20 | 133 | 17.7 | 37.0 | 0.00 | 0.00 | 0.00 | 49 | 1003.3 |
| 20260902114031 | 20 | 135 | 27.4 | 35.4 | 0.00 | 0.00 | 0.00 | 49 | 1003.3 |
| 20260902113531 | 20 | 147 | 19.3 | 41.8 | 0.00 | 0.00 | 0.00 | 48 | 1003.3 |
| 20260902113032 | 20 | 126 | 20.9 | 41.8 | 0.00 | 0.00 | 0.00 | 48 | 1003.4 |
| 20260902112530 | 20 | 120 | 27.4 | 37.0 | 0.00 | 0.00 | 0.00 | 48 | 1003.4 |
| 20260902112031 | 20 | 152 | 22.5 | 48.3 | 0.00 | 0.00 | 0.00 | 49 | 1003.5 |
| 20260902111529 | 20 | 144 | 22.5 | 48.3 | 0.00 | 0.00 | 0.00 | 48 | 1003.5 |
| 20260902111027 | 20 | 134 | 20.9 | 35.4 | 0.00 | 0.00 | 0.00 | 50 | 1003.6 |
| 20260902110526 | 19 | 144 | 17.7 | 43.5 | 0.00 | 0.00 | 0.00 | 51 | 1003.5 |
| 20260902110026 | 19 | 168 | 27.4 | 43.5 | 0.00 | 0.00 | 0.00 | 52 | 1003.6 |
| 20260902105524 | 18 | 130 | 17.7 | 35.4 | 0.00 | 0.00 | 0.00 | 52 | 1003.5 |
| 20260902105025 | 17 | 138 | 20.9 | 35.4 | 0.00 | 0.00 | 0.00 | 53 | 1003.6 |
| 20260902104524 | 17 | 124 | 9.7 | 24.1 | 0.00 | 0.00 | 0.00 | 53 | 1003.6 |
| 20260902104026 | 17 | 153 | 12.9 | 27.4 | 0.00 | 0.00 | 0.00 | 53 | 1003.5 |
| 20260902103523 | 17 | 128 | 19.3 | 27.4 | 0.00 | 0.00 | 0.00 | 53 | 1003.6 |
| 20260902103036 | 17 | 144 | 19.3 | 24.1 | 0.00 | 0.00 | 0.00 | 52 | 1003.7 |
| 20260902102524 | 17 | 172 | 17.7 | 25.7 | 0.00 | 0.00 | 0.00 | 53 | 1003.6 |
| 20260902102023 | 17 | 142 | 16.1 | 27.4 | 0.00 | 0.00 | 0.00 | 52 | 1003.6 |
| 20260902101538 | 17 | 149 | 17.7 | 29.0 | 0.00 | 0.00 | 0.00 | 52 | 1003.6 |
| 20260902101026 | 17 | 140 | 19.3 | 33.8 | 0.00 | 0.00 | 0.00 | 52 | 1003.6 |
| 20260902100522 | 17 | 164 | 19.3 | 35.4 | 0.00 | 0.00 | 0.00 | 53 | 1003.7 |
| 20260902100022 | 16 | 185 | 17.7 | 27.4 | 0.00 | 0.00 | 0.00 | 53 | 1003.7 |
| 20260902095521 | 15 | 153 | 14.5 | 25.7 | 0.00 | 0.00 | 0.00 | 52 | 1003.7 |
| 20260902095020 | 15 | 157 | 11.3 | 22.5 | 0.00 | 0.00 | 0.00 | 53 | 1003.7 |
| 20260902094520 | 16 | 157 | 14.5 | 27.4 | 0.00 | 0.00 | 0.00 | 53 | 1003.7 |
| 20260902094019 | 15 | 126 | 19.3 | 25.7 | 0.00 | 0.00 | 0.00 | 52 | 1003.7 |
| 20260902093519 | 15 | 155 | 17.7 | 24.1 | 0.00 | 0.00 | 0.00 | 53 | 1003.7 |
| 20260902093018 | 16 | 157 | 16.1 | 29.0 | 0.00 | 0.00 | 0.00 | 53 | 1003.8 |
| 20260902092517 | 16 | 159 | 19.3 | 30.6 | 0.00 | 0.00 | 0.00 | 53 | 1003.7 |
| 20260902092018 | 16 | 145 | 19.3 | 30.6 | 0.00 | 0.00 | 0.00 | 52 | 1003.8 |
| 20260902091516 | 15 | 143 | 19.3 | 25.7 | 0.00 | 0.00 | 0.00 | 52 | 1003.8 |
| 20260902091014 | 15 | 166 | 14.5 | 24.1 | 0.00 | 0.00 | 0.00 | 53 | 1003.8 |
| 20260902090513 | 16 | 146 | 17.7 | 25.7 | 0.00 | 0.00 | 0.00 | 53 | 1003.7 |
| 20260902090012 | 16 | 166 | 19.3 | 25.7 | 0.00 | 0.00 | 0.00 | 53 | 1003.8 |
| 20260902085511 | 17 | 136 | 16.1 | 25.7 | 0.00 | 0.00 | 0.00 | 53 | 1003.9 |
| 20260902085011 | 18 | 125 | 12.9 | 25.7 | 0.00 | 0.00 | 0.00 | 51 | 1003.8 |
| 20260902084510 | 19 | 154 | 16.1 | 24.1 | 0.00 | 0.00 | 0.00 | 49 | 1003.8 |
| 20260902084010 | 19 | 146 | 14.5 | 27.4 | 0.00 | 0.00 | 0.00 | 49 | 1003.8 |
| 20260902083509 | 18 | 137 | 22.5 | 27.4 | 0.00 | 0.00 | 0.00 | 52 | 1003.8 |
| 20260902083008 | 16 | 127 | 16.1 | 22.5 | 0.00 | 0.00 | 0.00 | 53 | 1003.8 |
| 20260902082508 | 17 | 128 | 17.7 | 29.0 | 0.00 | 0.00 | 0.00 | 53 | 1003.9 |
| 20260902082008 | 17 | 125 | 19.3 | 29.0 | 0.00 | 0.00 | 0.00 | 53 | 1003.9 |
| 20260902081508 | 18 | 127 | 17.7 | 30.6 | 0.00 | 0.00 | 0.00 | 53 | 1003.9 |
| 20260902081007 | 18 | 120 | 22.5 | 30.6 | 0.00 | 0.00 | 0.00 | 53 | 1003.9 |
| 20260902080515 | 17 | 112 | 20.9 | 29.0 | 0.00 | 0.00 | 0.00 | 53 | 1004.0 |
| 20260902080006 | 18 | 132 | 19.3 | 24.1 | 0.00 | 0.00 | 0.00 | 53 | 1004.0 |
| 20260902075505 | 18 | 132 | 17.7 | 25.7 | 0.00 | 0.00 | 0.00 | 52 | 1003.9 |
| 20260902075005 | 18 | 130 | 19.3 | 30.6 | 0.00 | 0.00 | 0.00 | 52 | 1003.9 |
| 20260902074505 | 18 | 117 | 22.5 | 30.6 | 0.00 | 0.00 | 0.00 | 52 | 1003.9 |
| 20260902074105 | 18 | 123 | 22.5 | 27.4 | 0.00 | 0.00 | 0.00 | 52 | 1003.9 |
| 20260902073504 | 18 | 128 | 17.7 | 22.5 | 0.00 | 0.00 | 0.00 | 52 | 1003.8 |
| 20260902073003 | 19 | 146 | 16.1 | 29.0 | 0.00 | 0.00 | 0.00 | 51 | 1003.9 |
| 20260902072502 | 19 | 132 | 22.5 | 29.0 | 0.00 | 0.00 | 0.00 | 50 | 1003.9 |
| 20260902072001 | 19 | 124 | 22.5 | 29.0 | 0.00 | 0.00 | 0.00 | 51 | 1003.8 |
| 20260902071502 | 19 | 124 | 19.3 | 29.0 | 0.00 | 0.00 | 0.00 | 51 | 1003.8 |
| 20260902071003 | 19 | 120 | 19.3 | 32.2 | 0.00 | 0.00 | 0.00 | 51 | 1003.8 |
| 20260902070600 | 19 | 142 | 22.5 | 32.2 | 0.00 | 0.00 | 0.00 | 51 | 1003.7 |
| 20260902065558 | 18 | 118 | 24.1 | 33.8 | 0.00 | 0.00 | 0.00 | 51 | 1003.8 |
| 20260902065058 | 18 | 138 | 22.5 | 32.2 | 0.00 | 0.00 | 0.00 | 52 | 1003.8 |
| 20260902064617 | 18 | 120 | 20.9 | 27.4 | 0.00 | 0.00 | 0.00 | 52 | 1003.7 |
| 20260902064056 | 18 | 116 | 22.5 | 30.6 | 0.00 | 0.00 | 0.00 | 52 | 1003.8 |
| 20260902063554 | 18 | 130 | 22.5 | 30.6 | 0.00 | 0.00 | 0.00 | 52 | 1003.8 |
| 20260902063056 | 18 | 128 | 17.7 | 25.7 | 0.00 | 0.00 | 0.00 | 52 | 1003.8 |
| 20260902062554 | 17 | 123 | 19.3 | 25.7 | 0.00 | 0.00 | 0.00 | 53 | 1003.9 |
| 20260902062051 | 16 | 135 | 16.1 | 22.5 | 0.00 | 0.00 | 0.00 | 53 | 1003.9 |
| 20260902061553 | 16 | 122 | 16.1 | 22.5 | 0.00 | 0.00 | 0.00 | 53 | 1003.9 |
| 20260902061049 | 16 | 130 | 14.5 | 20.9 | 0.00 | 0.00 | 0.00 | 53 | 1003.9 |
| 20260902060550 | 17 | 130 | 12.9 | 24.1 | 0.00 | 0.00 | 0.00 | 52 | 1003.9 |
| 20260902060051 | 18 | 121 | 16.1 | 24.1 | 0.00 | 0.00 | 0.00 | 51 | 1004.0 |
| 20260902055545 | 18 | 120 | 17.7 | 25.7 | 0.00 | 0.00 | 0.00 | 51 | 1004.0 |
| 20260902055043 | 18 | 118 | 19.3 | 27.4 | 0.00 | 0.00 | 0.00 | 51 | 1004.0 |
| 20260902054543 | 18 | 122 | 22.5 | 27.4 | 0.00 | 0.00 | 0.00 | 50 | 1004.0 |
| 20260902054041 | 18 | 119 | 17.7 | 25.7 | 0.00 | 0.00 | 0.00 | 49 | 1004.1 |
| 20260902053539 | 18 | 115 | 19.3 | 25.7 | 0.00 | 0.00 | 0.00 | 49 | 1004.1 |
| 20260902053038 | 18 | 120 | 19.3 | 24.1 | 0.00 | 0.00 | 0.00 | 49 | 1004.1 |
| 20260902052541 | 19 | 109 | 19.3 | 24.1 | 0.00 | 0.00 | 0.00 | 48 | 1004.1 |
| 20260902052034 | 19 | 122 | 14.5 | 24.1 | 0.00 | 0.00 | 0.00 | 49 | 1004.1 |
| 20260902051533 | 19 | 130 | 16.1 | 25.7 | 0.00 | 0.00 | 0.00 | 48 | 1004.1 |
| 20260902051032 | 19 | 109 | 16.1 | 27.4 | 0.00 | 0.00 | 0.00 | 49 | 1004.1 |
| 20260902050533 | 19 | 100 | 17.7 | 27.4 | 0.00 | 0.00 | 0.00 | 48 | 1004.1 |
| 20260902050029 | 20 | 115 | 17.7 | 25.7 | 0.00 | 0.00 | 0.00 | 48 | 1004.0 |
| 20260902045527 | 20 | 116 | 16.1 | 29.0 | 0.00 | 0.00 | 0.00 | 48 | 1004.0 |
| 20260902045026 | 20 | 121 | 20.9 | 29.0 | 0.00 | 0.00 | 0.00 | 47 | 1004.1 |
| 20260902044526 | 20 | 120 | 16.1 | 25.7 | 0.00 | 0.00 | 0.00 | 48 | 1004.1 |
| 20260902044026 | 20 | 103 | 17.7 | 27.4 | 0.00 | 0.00 | 0.00 | 47 | 1004.0 |
| 20260902043526 | 19 | 132 | 17.7 | 27.4 | 0.00 | 0.00 | 0.00 | 49 | 1004.1 |
| 20260902043025 | 19 | 129 | 16.1 | 20.9 | 0.00 | 0.00 | 0.00 | 50 | 1004.1 |
| 20260902042526 | 20 | 116 | 11.3 | 24.1 | 0.00 | 0.00 | 0.00 | 50 | 1004.1 |
| 20260902042026 | 19 | 109 | 16.1 | 24.1 | 0.00 | 0.00 | 0.00 | 51 | 1004.1 |
| 20260902041524 | 18 | 117 | 12.9 | 16.1 | 0.00 | 0.00 | 0.00 | 53 | 1004.0 |
| 20260902041026 | 18 | 164 | 8.0 | 16.1 | 0.00 | 0.00 | 0.00 | 53 | 1004.0 |
| 20260902040520 | 18 | 118 | 11.3 | 17.7 | 0.00 | 0.00 | 0.00 | 53 | 1004.1 |
| 20260902040020 | 18 | 120 | 14.5 | 17.7 | 0.00 | 0.00 | 0.00 | 52 | 1004.2 |
| 20260902035518 | 18 | 120 | 11.3 | 16.1 | 0.00 | 0.00 | 0.00 | 52 | 1004.1 |
| 20260902035017 | 18 | 125 | 11.3 | 16.1 | 0.00 | 0.00 | 0.00 | 52 | 1004.0 |
| 20260902034516 | 18 | 118 | 12.9 | 19.3 | 0.00 | 0.00 | 0.00 | 52 | 1004.0 |
| 20260902034014 | 18 | 128 | 12.9 | 19.3 | 0.00 | 0.00 | 0.00 | 52 | 1003.9 |
| 20260902033512 | 18 | 110 | 12.9 | 17.7 | 0.00 | 0.00 | 0.00 | 52 | 1003.9 |
| 20260902033011 | 18 | 124 | 11.3 | 16.1 | 0.00 | 0.00 | 0.00 | 52 | 1003.8 |
| 20260902032509 | 18 | 120 | 9.7 | 14.5 | 0.00 | 0.00 | 0.00 | 52 | 1003.8 |
| 20260902032007 | 18 | 157 | 8.0 | 11.3 | 0.00 | 0.00 | 0.00 | 52 | 1003.7 |
| 20260902031506 | 18 | 147 | 8.0 | 12.9 | 0.00 | 0.00 | 0.00 | 52 | 1003.6 |
| 20260902031005 | 18 | 129 | 8.0 | 14.5 | 0.00 | 0.00 | 0.00 | 52 | 1003.5 |
| 20260902030503 | 18 | 118 | 9.7 | 14.5 | 0.00 | 0.00 | 0.00 | 51 | 1003.5 |
| 20260902030002 | 18 | 140 | 8.0 | 12.9 | 0.00 | 0.00 | 0.00 | 51 | 1003.4 |
| 20260902025502 | 18 | 134 | 8.0 | 11.3 | 0.00 | 0.00 | 0.00 | 51 | 1003.3 |
| 20260902025102 | 18 | 161 | 8.0 | 9.7 | 0.00 | 0.00 | 0.00 | 52 | 1003.3 |
| 20260902024609 | 20 | 172 | 6.4 | 12.9 | 0.00 | 0.00 | 0.00 | 52 | 1003.2 |
| 20260902024059 | 20 | 151 | 6.4 | 14.5 | 0.00 | 0.00 | 0.00 | 52 | 1003.0 |
| 20260902023555 | 20 | 145 | 8.0 | 14.5 | 0.00 | 0.00 | 0.00 | 52 | 1003.1 |
| 20260902023101 | 21 | 146 | 8.0 | 12.9 | 0.00 | 0.00 | 0.00 | 52 | 1003.0 |
| 20260902022553 | 21 | 157 | 9.7 | 16.1 | 0.00 | 0.00 | 0.00 | 51 | 1003.0 |
| 20260902022055 | 21 | 136 | 12.9 | 19.3 | 0.00 | 0.00 | 0.00 | 50 | 1003.0 |
| 20260902021554 | 21 | 147 | 12.9 | 19.3 | 0.00 | 0.00 | 0.00 | 50 | 1003.0 |
| 20260902021048 | 22 | 136 | 12.9 | 17.7 | 0.00 | 0.00 | 0.00 | 49 | 1003.1 |
| 20260902020547 | 22 | 172 | 14.5 | 17.7 | 0.00 | 0.00 | 0.00 | 49 | 1003.1 |
| 20260902020045 | 23 | 145 | 16.1 | 25.7 | 0.00 | 0.00 | 0.00 | 48 | 1003.1 |
| 20260902015543 | 23 | 146 | 17.7 | 27.4 | 0.00 | 0.00 | 0.00 | 47 | 1003.1 |
| 20260902015044 | 23 | 143 | 20.9 | 27.4 | 0.00 | 0.00 | 0.00 | 47 | 1003.2 |
| 20260902014543 | 23 | 163 | 17.7 | 25.7 | 0.00 | 0.00 | 0.00 | 47 | 1003.2 |
| 20260902014041 | 23 | 148 | 16.1 | 27.4 | 0.00 | 0.00 | 0.00 | 46 | 1003.3 |
| 20260902013537 | 23 | 149 | 19.3 | 27.4 | 0.00 | 0.00 | 0.00 | 46 | 1003.3 |
| 20260902013036 | 23 | 153 | 17.7 | 27.4 | 0.00 | 0.00 | 0.00 | 46 | 1003.4 |
| 20260902012535 | 24 | 138 | 16.1 | 27.4 | 0.00 | 0.00 | 0.00 | 46 | 1003.4 |
| 20260902012033 | 25 | 134 | 20.9 | 27.4 | 0.00 | 0.00 | 0.00 | 44 | 1003.5 |
| 20260902011532 | 25 | 153 | 17.7 | 29.0 | 0.00 | 0.00 | 0.00 | 42 | 1003.5 |
| 20260902011030 | 25 | 170 | 17.7 | 30.6 | 0.00 | 0.00 | 0.00 | 42 | 1003.6 |
| 20260902010528 | 24 | 177 | 19.3 | 30.6 | 0.00 | 0.00 | 0.00 | 42 | 1003.6 |
| 20260902010027 | 25 | 172 | 22.5 | 32.2 | 0.00 | 0.00 | 0.00 | 41 | 1003.6 |
| 20260902005526 | 25 | 147 | 20.9 | 37.0 | 0.00 | 0.00 | 0.00 | 41 | 1003.6 |
| 20260902005026 | 25 | 180 | 20.9 | 45.1 | 0.00 | 0.00 | 0.00 | 41 | 1003.7 |
| 20260902004526 | 25 | 159 | 17.7 | 45.1 | 0.00 | 0.00 | 0.00 | 40 | 1003.7 |
| 20260902004021 | 25 | 149 | 30.6 | 40.2 | 0.00 | 0.00 | 0.00 | 40 | 1003.7 |
| 20260902003518 | 25 | 150 | 20.9 | 29.0 | 0.00 | 0.00 | 0.00 | 43 | 1003.7 |
| 20260902003024 | 25 | 139 | 19.3 | 35.4 | 0.00 | 0.00 | 0.00 | 43 | 1003.7 |
| 20260902002516 | 26 | 152 | 22.5 | 35.4 | 0.00 | 0.00 | 0.00 | 41 | 1003.8 |
| 20260902002015 | 26 | 165 | 22.5 | 37.0 | 0.00 | 0.00 | 0.00 | 41 | 1004.0 |
| 20260902001515 | 26 | 149 | 22.5 | 38.6 | 0.00 | 0.00 | 0.00 | 41 | 1003.9 |
| 20260902001012 | 26 | 153 | 24.1 | 41.8 | 0.00 | 0.00 | 0.00 | 41 | 1004.0 |
| 20260902000511 | 26 | 199 | 24.1 | 41.8 | 0.00 | 0.00 | 0.00 | 41 | 1004.1 |
| 20260902000010 | 26 | 164 | 27.4 | 38.6 | 0.00 | 0.00 | 0.00 | 40 | 1004.0 |
| 20260901235507 | 26 | 155 | 22.5 | 35.4 | 0.00 | 0.00 | 0.00 | 40 | 1004.0 |
| 20260901235006 | 25 | 170 | 25.7 | 35.4 | 0.00 | 0.00 | 0.00 | 42 | 1004.1 |
| 20260901234505 | 26 | 158 | 24.1 | 40.2 | 0.00 | 0.00 | 0.00 | 40 | 1004.1 |
| 20260901234004 | 26 | 164 | 27.4 | 40.2 | 0.00 | 0.00 | 0.00 | 39 | 1004.3 |
| 20260901233502 | 26 | 184 | 25.7 | 45.1 | 0.00 | 0.00 | 0.00 | 40 | 1004.2 |
| 20260901233100 | 26 | 183 | 24.1 | 41.8 | 0.00 | 0.00 | 0.00 | 39 | 1004.4 |
| 20260901232559 | 26 | 164 | 32.2 | 51.5 | 0.00 | 0.00 | 0.00 | 38 | 1004.3 |
| 20260901232057 | 26 | 156 | 32.2 | 51.5 | 0.00 | 0.00 | 0.00 | 38 | 1004.4 |
| 20260901231556 | 26 | 142 | 27.4 | 45.1 | 0.00 | 0.00 | 0.00 | 40 | 1004.5 |
| 20260901231054 | 25 | 125 | 32.2 | 45.1 | 0.00 | 0.00 | 0.00 | 40 | 1004.5 |
| 20260901230553 | 25 | 165 | 19.3 | 38.6 | 0.00 | 0.00 | 0.00 | 41 | 1004.6 |
| 20260901230052 | 26 | 141 | 29.0 | 40.2 | 0.00 | 0.00 | 0.00 | 39 | 1004.7 |
| 20260901225549 | 26 | 165 | 22.5 | 40.2 | 0.00 | 0.03 | 0.00 | 39 | 1004.7 |
| 20260901225048 | 26 | 165 | 22.5 | 41.8 | 0.00 | 0.03 | 0.00 | 41 | 1004.8 |
| 20260901224547 | 26 | 147 | 24.1 | 48.3 | 0.00 | 0.03 | 0.00 | 41 | 1004.9 |
| 20260901224047 | 26 | 174 | 30.6 | 48.3 | 0.00 | 0.03 | 0.00 | 41 | 1005.0 |
| 20260901223544 | 26 | 156 | 29.0 | 43.5 | 0.00 | 0.03 | 0.00 | 41 | 1004.8 |
| 20260901223047 | 25 | 163 | 30.6 | 40.2 | 0.00 | 0.03 | 0.00 | 42 | 1004.9 |
| 20260901222540 | 25 | 173 | 24.1 | 41.8 | 0.00 | 0.03 | 0.00 | 42 | 1005.1 |
| 20260901222039 | 25 | 176 | 27.4 | 41.8 | 0.00 | 0.03 | 0.00 | 42 | 1005.1 |
| 20260901221538 | 25 | 165 | 29.0 | 41.8 | 0.00 | 0.03 | 0.00 | 41 | 1005.2 |
| 20260901221038 | 26 | 160 | 29.0 | 46.7 | 0.00 | 0.03 | 0.00 | 39 | 1005.4 |
| 20260901220536 | 26 | 180 | 32.2 | 46.7 | 0.00 | 0.03 | 0.00 | 38 | 1005.4 |
| 20260901220037 | 26 | 154 | 30.6 | 49.9 | 0.00 | 0.03 | 0.00 | 39 | 1005.5 |
| 20260901215532 | 26 | 183 | 30.6 | 51.5 | 0.00 | 0.03 | 0.00 | 39 | 1005.7 |
| 20260901215030 | 27 | 182 | 37.0 | 62.8 | 0.00 | 0.03 | 0.00 | 38 | 1005.7 |
| 20260901214533 | 27 | 163 | 27.4 | 62.8 | 0.00 | 0.03 | 0.00 | 39 | 1005.8 |
| 20260901214028 | 26 | 134 | 30.6 | 56.3 | 0.00 | 0.03 | 0.00 | 37 | 1005.7 |
| 20260901213526 | 26 | 155 | 27.4 | 51.5 | 0.00 | 0.03 | 0.00 | 39 | 1006.0 |
| 20260901213030 | 26 | 157 | 37.0 | 51.5 | 0.00 | 0.03 | 0.00 | 37 | 1006.0 |
| 20260901212522 | 25 | 160 | 29.0 | 46.7 | 0.00 | 0.03 | 0.00 | 42 | 1006.2 |
| 20260901212021 | 25 | 178 | 29.0 | 40.2 | 0.00 | 0.03 | 0.00 | 40 | 1006.2 |
| 20260901211520 | 26 | 169 | 30.6 | 51.5 | 0.00 | 0.03 | 0.00 | 40 | 1006.4 |
| 20260901211018 | 26 | 160 | 32.2 | 51.5 | 0.00 | 0.03 | 0.00 | 41 | 1006.5 |
| 20260901210517 | 26 | 151 | 33.8 | 45.1 | 0.00 | 0.03 | 0.00 | 43 | 1006.6 |
| 20260901210016 | 25 | 190 | 24.1 | 35.4 | 0.00 | 0.03 | 0.00 | 45 | 1006.6 |
| 20260901205514 | 25 | 165 | 27.4 | 43.5 | 0.00 | 0.03 | 0.00 | 46 | 1006.8 |
| 20260901205013 | 25 | 182 | 30.6 | 48.3 | 0.00 | 0.03 | 0.00 | 44 | 1007.0 |
| 20260901204513 | 25 | 169 | 33.8 | 48.3 | 0.00 | 0.03 | 0.00 | 43 | 1006.9 |
| 20260901204011 | 26 | 163 | 30.6 | 46.7 | 0.00 | 0.03 | 0.00 | 46 | 1006.9 |
| 20260901203509 | 25 | 181 | 27.4 | 49.9 | 0.00 | 0.03 | 0.00 | 45 | 1007.1 |
| 20260901203009 | 25 | 132 | 27.4 | 48.3 | 0.00 | 0.03 | 0.00 | 47 | 1007.2 |
| 20260901202506 | 25 | 163 | 33.8 | 54.7 | 0.00 | 0.03 | 0.00 | 46 | 1007.2 |
| 20260901202004 | 25 | 138 | 33.8 | 53.1 | 0.00 | 0.03 | 0.00 | 46 | 1007.2 |
| 20260901201503 | 25 | 170 | 38.6 | 48.3 | 0.00 | 0.03 | 0.00 | 46 | 1007.4 |
| 20260901201002 | 25 | 142 | 29.0 | 37.0 | 0.00 | 0.03 | 0.00 | 47 | 1007.3 |
| 20260901200600 | 24 | 149 | 27.4 | 38.6 | 0.00 | 0.03 | 0.00 | 47 | 1007.5 |
| 20260901200059 | 24 | 163 | 22.5 | 46.7 | 0.00 | 0.03 | 0.00 | 47 | 1007.6 |
| 20260901195558 | 24 | 167 | 27.4 | 40.2 | 0.00 | 0.03 | 0.00 | 47 | 1007.6 |
| 20260901195057 | 25 | 159 | 24.1 | 40.2 | 0.00 | 0.03 | 0.00 | 47 | 1007.5 |
| 20260901194559 | 25 | 145 | 30.6 | 41.8 | 0.00 | 0.03 | 0.00 | 46 | 1007.7 |
| 20260901194053 | 24 | 168 | 30.6 | 41.8 | 0.00 | 0.03 | 0.00 | 47 | 1007.6 |
| 20260901193552 | 24 | 175 | 27.4 | 38.6 | 0.00 | 0.03 | 0.00 | 46 | 1007.9 |
| 20260901193054 | 25 | 160 | 29.0 | 41.8 | 0.00 | 0.03 | 0.00 | 46 | 1007.9 |
| 20260901192548 | 24 | 194 | 25.7 | 41.8 | 0.00 | 0.03 | 0.00 | 48 | 1008.0 |
| 20260901192048 | 24 | 161 | 30.6 | 41.8 | 0.00 | 0.03 | 0.00 | 48 | 1008.0 |
| 20260901191546 | 24 | 130 | 24.1 | 40.2 | 0.00 | 0.03 | 0.00 | 48 | 1008.1 |
| 20260901191044 | 23 | 170 | 29.0 | 40.2 | 0.00 | 0.03 | 0.00 | 49 | 1008.2 |
| 20260901190543 | 23 | 159 | 20.9 | 38.6 | 0.00 | 0.03 | 0.00 | 50 | 1008.1 |
| 20260901190045 | 23 | 162 | 29.0 | 38.6 | 0.00 | 0.03 | 0.00 | 50 | 1008.2 |
| 20260901185541 | 23 | 153 | 27.4 | 38.6 | 0.00 | 0.03 | 0.00 | 50 | 1008.2 |